Погода в Бийске

Погода в Бийске : погода сейчас, прогноз погоды и архив. Всё, что Вы хотите узнать о погоде в Бийске!

Хотите узнать прогноз погоды в Бийске? Тогда Вам сюда: Погода в Бийске

Поиск расширенной информации на нашем сайте:

Другие новости

Новости СМИ2

Главная страница сайта

Новости сайта

03.07.2017

Напоминаем, что на нашем специализированном сайте Метеоцентр.Азия вы можете получить высокодетализированные автоматические прогнозы погоды по пунктам России, СНГ и мира в авиационном формате (включающие направление и скорость ветра, видимость, явления погоды, количество и форму облачности, нижнюю и верхнюю границу облачности).


Погода в Бийске - сегодня

Время (UTC), дата Ветер
(°,м/с) 
Видим.   Явления Облачность Т
(°С)
Тd
(°С)
f(%) Тe
(°С)
Pmin
(гПа)
dP
(гПа)
Po
(мм)
O2
(г/м3)
Тmin Tmax R s Состояние
почвы
09 18.04.18 010 (С) 20000 м    10/4 600 м верхняя 
[Sc diur, vesp|Ci fib]
+2.8 -11.4 34 +2  1020.6  -0.7  744  298           
12 18.04.18 300 (СЗ) 20000 м    6/3 600 м верхняя 
[Sc diur, vesp|Ci fib]
+3.2 -12.9 30 +4  1020.1  -0.5  744  297    +3.8       
15 18.04.18 360 (С) 20000 м    4/4 600 м 
[Sc]
+0.2 -10.2 45 +1  1021.8  1.4  745  301           
18 18.04.18 тихо ()   20000 м    3/0 средняя 
[Ac trans]
-4 -7.5 77 -4  1022.9  0.7  746  306           
21 18.04.18 080 (В) 20000 м    ясно 
-1.2 -5.5 73 -1  1022.6  -0.1  746  302           
00 19.04.18 130 (ЮВ) 20000 м    ясно 
-3.1 -5.4 84 -3  1023  0.2  746  305  -5.5         
03 19.04.18 110 (В) 20000 м    9/0 верхняя 
[Cc]
+1.4 -4.7 64 1021.5  -0.9  745  299           
06 19.04.18 090 (В) 20000 м    10/6 600 м средняя 
[Sc diur, vesp|Ac trans]
+3.7 -6.8 46 +2  1018.3  -2.9  743  296           
09 19.04.18 070 (В) 20000 м    10/8 600 м кучево-дожд., средняя 
[Cb cap|Ac trans]
+3.5 -6.1 49 +2  1016.6  -1.6  742  296           
12 19.04.18 100 (В) 4000 м  ливневой снег  10/10 600 м кучево-дожд. 
[Cb cap]
+0.5 -1.5 86 -1  1016  -0.9  741  298    +4.6  0.0     
15 19.04.18 010 (С) 2000 м  ливневой снег  10/10 600 м кучево-дожд. 
[Cb cap]
-0.1 -1.4 91 -1  1016.7  0.5  741  299           
18 19.04.18 тихо ()   1000 м  ливневой снег  10/10 300 м кучево-дожд. 
[Cb cap]
-0.5 -1.5 93 -1  1018.6  1.9  743  300           
21 19.04.18 230 (ЮЗ) 20000 м  {ливн. осадки}  10/10 600 м кучево-дожд. 
[Cb cap]
-1 -1.9 94 1021.1  2.4  745  301           
00 20.04.18 240 (ЮЗ) 20000 м  {ливн. осадки}  10/10 600 м кучево-дожд. 
[Cb cap]
-1.1 -2.1 93 -1  1024  2.8  747  302  -2    равномерный
мокрый или
старый снег
100% 
03 20.04.18 220 (ЮЗ) 20000 м    8/8 600 м кучево-дожд. 
[Cb cap]
+1.1 -1.3 84 +2  1025.5  1.6  748  300           
06 20.04.18 200 (Ю) 20000 м    6/6 600 м 
[Cu med, cong]
+5.3 -0.3 67 +4  1024.9  -0.1  748  296           
09 20.04.18 190 (Ю) 20000 м    6/4 600 м верхняя 
[Cu med, cong|Ci fib]
+7.3 -4.2 44 +6  1023.7  -1  747  294           
12 20.04.18 210 (ЮЗ) 20000 м    4/0 верхняя 
[Ci fib]
+7.5 -3.2 47 +7  1022.8  -0.9  746  293    +8.4       
15 20.04.18 200 (Ю) 20000 м    ясно 
+3.4 -2.3 66 +4  1023.2  746  297           
18 20.04.18 150 (ЮВ) 20000 м    ясно 
+0.2 -2.2 84 +1  1022.4  -1  746  300           
21 20.04.18 140 (ЮВ) 20000 м    ясно 
+0.6 -2.1 82 1021.2  -1.2  745  300           
00 21.04.18 130 (ЮВ) 20000 м    8/4 600 м средняя 
[Sc|Ac cast]
-0.2 -2.3 86 1021.1  -0.2  745  300  -0.5         
03 21.04.18 140 (ЮВ) 20000 м    10/8 600 м средняя 
[Sc|Ac trans]
+5.5 -0.6 65 +5  1020.7  0.2  745  294           
06 21.04.18 160 (Ю) 20000 м    10/4 600 м средняя 
[Sc|Ac trans]
+11.2 -3.1 37 +11  1019.7  -0.4  744  288           
09 21.04.18 170 (Ю) 20000 м    10/0 средняя 
[Ac trans]
+15 -4.1 26 +15  1018  -1.3  743  284           
Время (UTC), дата Ветер
(°,м/с) 
Видим.   Явления Облачность Т
(°С)
Тd
(°С)
f(%) Тe
(°С)
Pmin
(гПа)
dP
(гПа)
Po
(мм)
O2
(г/м3)
Тmin Tmax R s Состояние
почвы

Для получения пояснительной информации подведите курсор к названию столбца.

ПОГОДА в Бийске - архив

Всё, что Вы хотите узнать о погоде в Бийске - удобно и подробно!

Выберите нужную дату (начиная с 1 января 2015* года) и нажмите кнопку "Найти".
Будут отображены архивные сводки погоды по пункту Бийск, начиная с указанной даты.


Отображать данные в формате CSV (для использования в таблицах Excel)


Внимание! Наш архив погоды предназначен исключительно для личного некоммерческого использования в познавательных целях. Если Вам необходимы официальные справки о состоянии погоды (для производственных, юридических, коммерческих и т.п. целей), обращайтесь в органы Росгидромета.

*Примечание: данная дата относится к архиву по метеостанциям СССР (Россия, СНГ, Балтия).
Архив по метеостанциям Зарубежной Европы и Азии (кроме Китая) хранится 10 дней, по другим регионам земного шара (Китай, Африка, Америка, Австралия, Океания) - 1 день.

Бийск - район местоположения метеостанции


Название, широта, долгота, высота метеостанции:
Бийск (Зональная) 52.7°ш. 84.9°д. 228 м над ур. моря [Российская Федерация]

Дополнительная информация

В oтличие oт бoльшинства пoгoдных сайтoв мы публикуем пoдрoбную метеoинфoрмацию в детальнoм прoфессиoнальнoм фoрмате.

Характеристики температуры и влажнoсти вoздуха измеряются на высoте 2 м в тени вдали oт зданий и деревьев.
Скoрoсть ветра измеряется на высoте 10 м (на урoвне рoста челoвека скoрoсть ветра ниже в 1.5-2 раза). Если метеoстанция нахoдится в гoрoде или в лесу, тo скoрoсть ветра занижена на 2-4 м/с пo сравнению с oткрытым местoм. Скoрoсть ветра над акватoриями крупных рек и oзёр, а также на вершинах хoлмoв на 2-5 м/с выше, чем в oбычных услoвиях.
Атмoсфернoе давление в разных тoчках местнoсти мoжет значительнo oтличаться oт давления на метеoстанции, в зависимoсти oт услoвий рельефа (при пoдъёме на 10 м давление пoнижается примернo на 1 мм рт.ст.).